Hourly Weather Rudawa

Today, 11 April, Sunday

Time Temperature Precipitation Wind Pressure Humidity
00:00 +6°C° 0 mm 2 mps 751 mmHg 93%
01:00 +5°C° 0 mm 3 mps 751 mmHg 94%
02:00 +5°C° 0 mm 3 mps 751 mmHg 94%
03:00 +5°C° 0 mm 3 mps 750 mmHg 94%
04:00 +5°C° 0 mm 3 mps 750 mmHg 94%
05:00 +7°C° 0 mm 3 mps 750 mmHg 89%
06:00 +6°C° 0 mm 4 mps 750 mmHg 84%
07:00 +7°C° 0 mm 4 mps 750 mmHg 79%
08:00 +9°C° 0 mm 5 mps 750 mmHg 71%
09:00 +11°C° 0 mm 6 mps 750 mmHg 64%
10:00 +14°C° 0 mm 6 mps 749 mmHg 56%
11:00 +14°C° 0 mm 6 mps 749 mmHg 55%
12:00 +15°C° 0 mm 7 mps 749 mmHg 54%
13:00 +15°C° 0 mm 7 mps 749 mmHg 52%
14:00 +15°C° 0 mm 6 mps 749 mmHg 55%
15:00 +15°C° 0 mm 6 mps 749 mmHg 58%
16:00 +14°C° 0 mm 5 mps 749 mmHg 61%
17:00 +13°C° 0 mm 5 mps 749 mmHg 65%
18:00 +12°C° 0 mm 4 mps 749 mmHg 69%
19:00 +11°C° 0 mm 4 mps 749 mmHg 74%
20:00 +10°C° 0 mm 4 mps 749 mmHg 76%
21:00 +10°C° 0 mm 4 mps 749 mmHg 78%
22:00 +8°C° 0 mm 4 mps 749 mmHg 79%
23:00 +9°C° 0 mm 3 mps 749 mmHg 81%

Tomorrow, 12 April, Monday

Time Temperature Precipitation Wind Pressure Humidity
00:00 +8°C° 0 mm 3 mps 749 mmHg 83%
01:00 +8°C° 0 mm 3 mps 749 mmHg 84%
02:00 +7°C° 0 mm 3 mps 750 mmHg 86%
03:00 +7°C° 0 mm 3 mps 750 mmHg 87%
04:00 +7°C° 0 mm 3 mps 750 mmHg 89%
05:00 +7°C° 0 mm 3 mps 750 mmHg 89%
06:00 +6°C° 0 mm 4 mps 751 mmHg 88%
07:00 +6°C° 0 mm 5 mps 752 mmHg 88%
08:00 +6°C° 0 mm 5 mps 752 mmHg 86%
09:00 +6°C° 0 mm 5 mps 752 mmHg 85%
10:00 +6°C° 0 mm 5 mps 753 mmHg 83%
11:00 +5°C° 0 mm 5 mps 753 mmHg 84%
12:00 +3°C° 0 mm 5 mps 754 mmHg 86%
13:00 +3°C° 0 mm 5 mps 754 mmHg 87%
14:00 +2°C° 0.1 mm 5 mps 755 mmHg 90%
15:00 +2°C° 0.1 mm 5 mps 755 mmHg 93%
16:00 +1°C° 0.1 mm 4 mps 755 mmHg 95%
17:00 +1°C° 0.2 mm 4 mps 756 mmHg 96%
18:00 +1°C° 0.2 mm 4 mps 756 mmHg 96%
19:00 +1°C° 0.2 mm 4 mps 757 mmHg 96%
20:00 +1°C° 0.5 mm 4 mps 757 mmHg 96%
21:00 +1°C° 0.5 mm 4 mps 757 mmHg 96%
22:00 +1°C° 0.5 mm 4 mps 757 mmHg 96%
23:00 +2°C° 0.1 mm 3 mps 758 mmHg 94%

Day after tomorrow, 13 April, Tuesday

Time Temperature Precipitation Wind Pressure Humidity
00:00 +2°C° 0.1 mm 3 mps 758 mmHg 92%
01:00 +2°C° 0.1 mm 2 mps 758 mmHg 91%
02:00 +2°C° 0 mm 2 mps 758 mmHg 91%
03:00 +2°C° 0 mm 2 mps 758 mmHg 90%
04:00 +2°C° 0 mm 2 mps 758 mmHg 90%
05:00 +3°C° 0.1 mm 2 mps 758 mmHg 88%
06:00 +3°C° 0.1 mm 2 mps 759 mmHg 85%
07:00 +3°C° 0.1 mm 2 mps 759 mmHg 82%
08:00 +4°C° 0 mm 2 mps 759 mmHg 78%
09:00 +5°C° 0 mm 2 mps 759 mmHg 73%
10:00 +5°C° 0 mm 3 mps 759 mmHg 69%
11:00 +5°C° 0.1 mm 3 mps 759 mmHg 62%
12:00 +6°C° 0.1 mm 4 mps 759 mmHg 55%
13:00 +7°C° 0.1 mm 5 mps 758 mmHg 49%
14:00 +7°C° 0 mm 5 mps 758 mmHg 46%
15:00 +7°C° 0 mm 5 mps 758 mmHg 43%
16:00 +7°C° 0 mm 5 mps 757 mmHg 40%
17:00 +7°C° 0 mm 4 mps 758 mmHg 44%
18:00 +7°C° 0 mm 3 mps 758 mmHg 48%
19:00 +6°C° 0 mm 2 mps 758 mmHg 51%
20:00 +6°C° 0 mm 2 mps 758 mmHg 54%
21:00 +4°C° 0 mm 3 mps 758 mmHg 56%
22:00 +4°C° 0 mm 3 mps 758 mmHg 58%
23:00 +4°C° 0 mm 3 mps 758 mmHg 61%

14 April, Wednesday

Time Temperature Precipitation Wind Pressure Humidity
00:00 +3°C° 0 mm 3 mps 758 mmHg 64%
01:00 +3°C° 0 mm 3 mps 758 mmHg 67%
02:00 +3°C° 0 mm 3 mps 758 mmHg 69%
03:00 +1°C° 0 mm 4 mps 758 mmHg 70%
04:00 +1°C° 0 mm 4 mps 758 mmHg 72%
05:00 +1°C° 0 mm 4 mps 758 mmHg 72%
06:00 +1°C° 0 mm 4 mps 758 mmHg 73%
07:00 +3°C° 0 mm 4 mps 758 mmHg 73%
08:00 +3°C° 0 mm 5 mps 758 mmHg 69%
09:00 +5°C° 0 mm 5 mps 758 mmHg 65%
10:00 +5°C° 0 mm 6 mps 758 mmHg 61%
11:00 +5°C° 0.2 mm 6 mps 758 mmHg 58%
12:00 +7°C° 0.2 mm 6 mps 757 mmHg 55%
13:00 +7°C° 0.2 mm 6 mps 757 mmHg 52%
14:00 +7°C° 0.2 mm 6 mps 757 mmHg 55%
15:00 +7°C° 0.2 mm 6 mps 757 mmHg 58%
16:00 +7°C° 0.2 mm 5 mps 756 mmHg 61%
17:00 +6°C° 0.1 mm 5 mps 757 mmHg 62%
18:00 +5°C° 0.1 mm 4 mps 757 mmHg 63%
19:00 +5°C° 0.1 mm 4 mps 757 mmHg 65%
20:00 +4°C° 0 mm 4 mps 757 mmHg 65%
21:00 +3°C° 0 mm 4 mps 757 mmHg 64%
22:00 +2°C° 0 mm 5 mps 757 mmHg 64%
23:00 +1°C° 0.1 mm 5 mps 757 mmHg 74%

15 April, Thursday

Time Temperature Precipitation Wind Pressure Humidity
00:00 -1°C° 0.1 mm 6 mps 757 mmHg 84%
01:00 -1°C° 0.1 mm 6 mps 757 mmHg 93%
02:00 -2°C° 0.5 mm 6 mps 756 mmHg 94%
03:00 -2°C° 0.5 mm 6 mps 756 mmHg 96%
04:00 -2°C° 0.5 mm 6 mps 756 mmHg 97%
05:00 -2°C° 1 mm 6 mps 756 mmHg 97%
06:00 -2°C° 1 mm 7 mps 756 mmHg 97%
07:00 -3°C° 1 mm 7 mps 756 mmHg 98%
08:00 -2°C° 1 mm 6 mps 756 mmHg 98%
09:00 -2°C° 1 mm 6 mps 756 mmHg 98%
10:00 -2°C° 1 mm 6 mps 756 mmHg 99%
11:00 -2°C° 0.6 mm 6 mps 757 mmHg 99%
12:00 0°C° 0.6 mm 5 mps 757 mmHg 99%
13:00 0°C° 0.6 mm 5 mps 757 mmHg 99%
14:00 0°C° 0.6 mm 5 mps 757 mmHg 99%
15:00 0°C° 0.6 mm 5 mps 757 mmHg 99%
16:00 -1°C° 0.6 mm 4 mps 757 mmHg 99%
17:00 -1°C° 1 mm 4 mps 757 mmHg 99%
18:00 -1°C° 1 mm 4 mps 757 mmHg 99%
19:00 -1°C° 1 mm 4 mps 757 mmHg 99%
20:00 -1°C° 0.7 mm 4 mps 758 mmHg 99%
21:00 0°C° 0.7 mm 4 mps 758 mmHg 99%
22:00 +1°C° 0.7 mm 3 mps 758 mmHg 99%
23:00 +1°C° 0.2 mm 3 mps 758 mmHg 99%

16 April, Friday

Time Temperature Precipitation Wind Pressure Humidity
00:00 0°C° 0.2 mm 4 mps 758 mmHg 99%
01:00 +1°C° 0.2 mm 4 mps 758 mmHg 99%
02:00 +1°C° 0.5 mm 4 mps 758 mmHg 98%
03:00 +1°C° 0.5 mm 4 mps 759 mmHg 98%
04:00 +2°C° 0.5 mm 3 mps 759 mmHg 98%
05:00 +2°C° 0.2 mm 3 mps 759 mmHg 97%
06:00 +2°C° 0.2 mm 3 mps 759 mmHg 97%
07:00 +2°C° 0.2 mm 3 mps 760 mmHg 97%
08:00 +3°C° 0 mm 3 mps 760 mmHg 92%
09:00 +3°C° 0 mm 3 mps 760 mmHg 88%
10:00 +4°C° 0 mm 4 mps 760 mmHg 83%
11:00 +5°C° 0.1 mm 4 mps 760 mmHg 83%
12:00 +5°C° 0.1 mm 4 mps 760 mmHg 82%
13:00 +6°C° 0.1 mm 4 mps 760 mmHg 82%
14:00 +5°C° 0.1 mm 3 mps 760 mmHg 82%
15:00 +6°C° 0.1 mm 2 mps 761 mmHg 83%
16:00 +7°C° 0.1 mm 1 mps 761 mmHg 83%
17:00 +6°C° 0 mm 1 mps 761 mmHg 86%
18:00 +6°C° 0 mm 1 mps 761 mmHg 89%
19:00 +5°C° 0 mm 1 mps 761 mmHg 91%
20:00 +5°C° 0 mm 1 mps 761 mmHg 92%
21:00 +5°C° 0 mm 1 mps 761 mmHg 92%
22:00 +4°C° 0 mm 1 mps 762 mmHg 93%
23:00 +4°C° 0 mm 1 mps 762 mmHg 93%
Show more